Alva, OK

5:34 AM CST on February 24, 2017 (GMT -0600)
Alva Regional

Weather History for KAVK - March, 2013

Change the Weather History Date:

Friday, March 15, 2013

  Actual Average Record
Temperature  
Mean Temperature 64 °F -  
Max Temperature 86 °F 59 °F 86 °F (2013)
Min Temperature 42 °F 36 °F 17 °F (1954)
Degree Days  
Heating Degree Days 1    
Growing Degree Days 14 (Base 50)    
Moisture  
Dew Point 42 °F    
Average Humidity 54    
Maximum Humidity 87    
Minimum Humidity 18    
Precipitation  
Precipitation 0.00 in - - ()
Sea Level Pressure  
Sea Level Pressure 29.88 in    
Wind  
Wind Speed 8 mph (SW)    
Max Wind Speed 23 mph    
Max Gust Speed 29 mph    
Visibility 10 miles    
Events      
Averages and records for this station are not official NWS values.
T = Trace of Precipitation, MM = Missing Value Source: NWS Daily Summary

Daily Weather History Graph

Daily Weather History Graph

Search for Another Location

Airport or City:

Trip Planner

Search our weather history database for the weather conditions in past years. The results will help you decide how hot, cold, wet, or windy it might be!

Date:

Astronomy

Mar. 15, 2013 Rise Set
Actual Time 7:45 AM CDT 7:42 PM CDT
Civil Twilight 7:19 AM CDT 8:08 PM CDT
Nautical Twilight 6:49 AM CDT 8:38 PM CDT
Astronomical Twilight 6:19 AM CDT 9:08 PM CDT
Moon 9:43 AM CDT (3/15) 11:50 PM CDT (3/15)
Length of Visible Light 12h 48m
Length of Day
11h 57m
Waxing Crescent, 15% of the Moon is Illuminated
Mar 15
Waxing Crescent
Mar 19
First Quarter
Mar 27
Full
Apr 2
Last Quarter
Apr 10
New

Hourly Weather History & Observations

Time (CDT) Temp. Windchill Dew Point Humidity Pressure Visibility Wind Dir Wind Speed Gust Speed Precip Events Conditions
12:10 AM 55.4 °F - 41.0 °F 58% 30.09 in 10.0 mi West 5.8 mph - N/A   Clear
12:30 AM 55.4 °F - 41.0 °F 58% 30.09 in 10.0 mi West 5.8 mph - N/A   Clear
12:50 AM 50.0 °F - 41.0 °F 71% 30.09 in 10.0 mi West 6.9 mph - N/A   Partly Cloudy
1:10 AM 53.6 °F - 41.0 °F 62% 30.08 in 10.0 mi West 6.9 mph - N/A   Clear
1:30 AM 53.6 °F - 41.0 °F 62% 30.08 in 10.0 mi WSW 8.1 mph - N/A   Partly Cloudy
1:50 AM 50.0 °F - 41.0 °F 71% 30.06 in 10.0 mi SW 8.1 mph - N/A   Clear
2:10 AM 46.4 °F 42.4 °F 41.0 °F 81% 30.05 in 10.0 mi SW 8.1 mph - N/A   Clear
2:50 AM 44.6 °F 40.2 °F 41.0 °F 87% 30.04 in 10.0 mi SSW 8.1 mph - N/A   Clear
3:10 AM 46.4 °F 41.9 °F 39.2 °F 76% 30.04 in 10.0 mi SSW 9.2 mph - N/A   Clear
3:50 AM 50.0 °F - 41.0 °F 71% 30.01 in 10.0 mi South 9.2 mph - N/A   Clear
4:10 AM 48.2 °F - 41.0 °F 76% 30.01 in 10.0 mi South 5.8 mph - N/A   Clear
4:30 AM 48.2 °F - 41.0 °F 76% 30.00 in 10.0 mi Calm Calm - N/A   Clear
4:50 AM 48.2 °F - 41.0 °F 76% 30.00 in 10.0 mi Calm Calm - N/A   Clear
5:10 AM 48.2 °F - 41.0 °F 76% 29.99 in 10.0 mi Calm Calm - N/A   Clear
5:30 AM 48.2 °F - 41.0 °F 76% 29.99 in 10.0 mi West 4.6 mph - N/A   Clear
5:50 AM 50.0 °F - 41.0 °F 71% 29.99 in 10.0 mi West 5.8 mph - N/A   Clear
6:10 AM 48.2 °F - 39.2 °F 71% 29.98 in 10.0 mi WNW 5.8 mph - N/A   Clear
6:30 AM 44.6 °F 43.1 °F 39.2 °F 81% 29.98 in 10.0 mi NNW 3.5 mph - N/A   Clear
6:50 AM 48.2 °F - 39.2 °F 71% 29.98 in 10.0 mi Calm Calm - N/A   Clear
7:10 AM 46.4 °F 42.9 °F 39.2 °F 76% 29.97 in 10.0 mi NW 6.9 mph - N/A   Clear
7:50 AM 44.6 °F - 39.2 °F 81% 29.97 in 10.0 mi Calm Calm - N/A   Clear
8:10 AM 44.6 °F 40.7 °F 39.2 °F 81% 29.97 in 10.0 mi South 6.9 mph - N/A   Clear
8:30 AM 42.8 °F 39.3 °F 39.2 °F 87% 29.97 in 10.0 mi SW 5.8 mph - N/A   Clear
8:50 AM 48.2 °F - 41.0 °F 76% 29.96 in 10.0 mi SW 3.5 mph - N/A   Clear
9:10 AM 50.0 °F - 44.6 °F 82% 29.96 in 10.0 mi WSW 4.6 mph - N/A   Clear
9:30 AM 53.6 °F - 44.6 °F 72% 29.95 in 10.0 mi WSW 4.6 mph - N/A   Clear
9:50 AM 55.4 °F - 44.6 °F 67% 29.95 in 10.0 mi WSW 3.5 mph - N/A   Clear
10:10 AM 57.2 °F - 44.6 °F 63% 29.95 in 10.0 mi SW 3.5 mph - N/A   Clear
10:30 AM 59.0 °F - 46.4 °F 63% 29.95 in 10.0 mi SSW 4.6 mph - N/A   Clear
10:50 AM 64.4 °F - 46.4 °F 52% 29.94 in 10.0 mi WSW 9.2 mph - N/A   Clear
11:10 AM 66.2 °F - 44.6 °F 46% 29.93 in 10.0 mi West 11.5 mph - N/A   Clear
11:30 AM 68.0 °F - 44.6 °F 43% 29.92 in 10.0 mi West 12.7 mph - N/A   Clear
11:50 AM 69.8 °F - 44.6 °F 40% 29.92 in 10.0 mi West 10.4 mph - N/A   Clear
12:10 PM 71.6 °F - 44.6 °F 38% 29.91 in 10.0 mi WSW 13.8 mph - N/A   Clear
12:30 PM 73.4 °F - 42.8 °F 33% 29.91 in 10.0 mi WSW 10.4 mph - N/A   Clear
12:50 PM 73.4 °F - 44.6 °F 36% 29.90 in 10.0 mi SW 12.7 mph - N/A   Clear
1:10 PM 75.2 °F - 46.4 °F 36% 29.89 in 10.0 mi SSW 11.5 mph - N/A   Clear
1:30 PM 75.2 °F - 46.4 °F 36% 29.87 in 10.0 mi SSW 9.2 mph - N/A   Clear
1:50 PM 77.0 °F - 46.4 °F 34% 29.86 in 10.0 mi SSW 10.4 mph - N/A   Clear
2:10 PM 78.8 °F - 46.4 °F 32% 29.85 in 10.0 mi SSW 8.1 mph - N/A   Clear
2:30 PM 80.6 °F - 41.0 °F 24% 29.84 in 10.0 mi SW 12.7 mph - N/A   Clear
2:50 PM 80.6 °F - 39.2 °F 23% 29.82 in 10.0 mi SW 6.9 mph - N/A   Clear
3:10 PM 82.4 °F - 35.6 °F 19% 29.80 in 10.0 mi WSW 13.8 mph 19.6 mph N/A   Clear
3:30 PM 84.2 °F - 37.4 °F 19% 29.79 in 10.0 mi SW 16.1 mph 23.0 mph N/A   Clear
3:50 PM 82.4 °F - 37.4 °F 20% 29.78 in 10.0 mi SW 15.0 mph 20.7 mph N/A   Clear
4:10 PM 82.4 °F - 37.4 °F 20% 29.77 in 10.0 mi SW 15.0 mph - N/A   Clear
4:30 PM 86.0 °F - 37.4 °F 18% 29.76 in 10.0 mi SW 23.0 mph 28.8 mph N/A   Clear
4:50 PM 84.2 °F - 37.4 °F 19% 29.75 in 10.0 mi SW 19.6 mph 24.2 mph N/A   Clear
5:10 PM 84.2 °F - 35.6 °F 18% 29.74 in 10.0 mi WSW 16.1 mph 23.0 mph N/A   Clear
5:30 PM 82.4 °F - 39.2 °F 21% 29.74 in 10.0 mi SW 13.8 mph - N/A   Clear
5:50 PM 82.4 °F - 37.4 °F 20% 29.73 in 10.0 mi SW 15.0 mph 19.6 mph N/A   Clear
6:10 PM 80.6 °F - 37.4 °F 21% 29.73 in 10.0 mi SW 12.7 mph - N/A   Clear
6:30 PM 78.8 °F - 44.6 °F 30% 29.73 in 10.0 mi SW 10.4 mph - N/A   Clear
6:50 PM 75.2 °F - 46.4 °F 36% 29.74 in 10.0 mi SSW 10.4 mph - N/A   Clear
7:10 PM 73.4 °F - 48.2 °F 41% 29.74 in 10.0 mi SSW 11.5 mph - N/A   Clear
7:30 PM 69.8 °F - 50.0 °F 49% 29.74 in 10.0 mi SSW 9.2 mph - N/A   Clear
7:50 PM 66.2 °F - 48.2 °F 52% 29.74 in 10.0 mi SW 8.1 mph - N/A   Clear
8:10 PM 66.2 °F - 48.2 °F 52% 29.74 in 10.0 mi SW 5.8 mph - N/A   Clear
8:30 PM 64.4 °F - 46.4 °F 52% 29.74 in 10.0 mi SSW 8.1 mph - N/A   Clear
8:50 PM 62.6 °F - 46.4 °F 55% 29.74 in 10.0 mi SSW 10.4 mph - N/A   Clear
9:10 PM 60.8 °F - 46.4 °F 59% 29.73 in 10.0 mi SSW 10.4 mph - N/A   Clear
9:30 PM 59.0 °F - 46.4 °F 63% 29.74 in 10.0 mi SSW 9.2 mph - N/A   Clear
9:50 PM 62.6 °F - 46.4 °F 55% 29.74 in 10.0 mi SW 11.5 mph - N/A   Clear
10:10 PM 60.8 °F - 46.4 °F 59% 29.74 in 10.0 mi SW 11.5 mph - N/A   Clear
10:30 PM 59.0 °F - 44.6 °F 59% 29.73 in 10.0 mi SW 10.4 mph - N/A   Clear
10:50 PM 59.0 °F - 44.6 °F 59% 29.73 in 10.0 mi SW 11.5 mph - N/A   Clear
11:10 PM 57.2 °F - 44.6 °F 63% 29.73 in 10.0 mi SW 11.5 mph - N/A   Clear
11:30 PM 57.2 °F - 44.6 °F 63% 29.73 in 10.0 mi South 8.1 mph - N/A   Clear
11:50 PM 57.2 °F - 44.6 °F 63% 29.73 in 10.0 mi SSW 8.1 mph - N/A   Clear